#timestamp,LO_Frequency,Hit,StdDev 
1618250415.2,286047001.5,N
1618250435.1,286047001.5,N
1618250436.0,286047001.5,N
1618250455.8,286047002.2,N
1618250475.6,286047002.3,N
1618250495.5,286046999.7,N
1618250515.3,286047000.1,N
1618250535.2,286047000.3,N
1618250555.9,286046999.9,N
1618250575.7,286046999.9,N
1618250595.6,286047000.4,N
1618250615.4,286047000.3,N
1618250635.2,286046999.7,N
1618250655.1,286047002.4,N
1618250656.0,286047002.4,N
1618250675.8,286047000.2,N
1618250695.7,286046999.7,N
1618250715.5,286047000.1,N
1618250735.3,286047000.0,N
1618250755.2,286046999.7,N
1618250775.0,286047002.8,N
1618250775.9,286047002.8,N
1618250795.8,286046999.7,N
1618250815.6,286047002.7,N
1618250835.4,286047000.2,N
1618250855.3,286046999.9,N
1618250875.1,286047002.6,N
1618250895.8,286047002.2,N
1618250915.7,286047001.3,N
1618250935.5,286047002.5,N
1618250955.4,286047002.7,N
1618250975.2,286047002.3,N
1618250995.0,286047002.6,N
1618250995.9,286047002.6,N
1618251015.8,286047002.3,N
1618251035.6,286047002.2,N
1618251055.5,286047002.2,N
1618251075.3,286047001.5,N
1618251095.1,286047001.7,N
1618251115.9,286047001.7,N
1618251135.7,286047001.4,N
1618251155.5,286047001.5,N
1618251175.4,286047001.7,N
1618251195.2,286047001.5,N
1618251215.1,286047001.4,N
1618251216.0,286047001.4,N
1618251235.8,286047001.9,N
1618251255.6,286047001.3,N
1618251275.5,286047001.8,N
1618251295.3,286047001.5,N
1618251315.1,286047001.7,N
1618251335.9,286047001.5,N
1618251355.7,286047002.2,N
1618251375.6,286047002.6,Y
1618251395.4,286047000.2,P
1618251415.2,286046999.8,N
1618251435.1,286047000.5,N
1618251436.0,286047000.5,N
1618251455.8,286047001.0,N
1618251475.6,286047000.3,N
1618251495.5,286047000.3,N
1618251515.3,286047000.3,N
1618251535.2,286047000.0,N
1618251555.9,286047000.5,N
1618251575.7,286047000.2,N
1618251595.6,286047000.0,N
1618251615.4,286047000.6,N
1618251635.3,286047000.4,N
1618251655.1,286047000.8,N
1618251656.0,286047000.8,N
1618251675.8,286047000.6,N
1618251695.7,286047000.5,N
1618251715.5,286046998.1,Y
1618251735.3,286046998.3,P
1618251755.2,286046999.0,N
1618251775.0,286046998.6,N
1618251775.9,286046998.6,N
1618251795.8,286046998.8,N
1618251815.6,286046999.0,N
1618251835.4,286046998.1,N
1618251855.3,286047001.0,N
1618251875.1,286046998.1,N
1618251895.9,286047001.2,N
1618251915.7,286047001.2,N
1618251935.5,286047000.8,N
1618251955.4,286047000.6,N
1618251975.2,286046998.1,N
1618251995.0,286046998.1,N
1618251995.9,286046998.1,N
1618252015.8,286047001.1,N
1618252035.6,286047001.1,N
1618252055.5,286047001.2,N
1618252075.3,286046998.1,N
1618252095.1,286047001.2,N
1618252115.9,286046998.1,N
1618252135.7,286047000.7,N
1618252155.5,286046998.1,N
1618252175.4,286047001.2,N
1618252195.2,286047000.8,N
1618252215.1,286046999.9,N
1618252216.0,286046999.9,N
1618252235.8,286047000.8,N
1618252255.6,286047000.8,N
1618252275.5,286047000.5,N
1618252295.3,286047001.1,N
1618252315.2,286047001.1,N
1618252335.9,286047001.0,N
1618252355.7,286047000.6,N
1618252375.6,286047000.8,N
1618252395.4,286046998.5,N
1618252415.2,286046998.2,N
1618252435.1,286046998.1,N
1618252436.0,286046998.1,N
1618252455.8,286046998.6,N
1618252475.7,286046998.5,N
1618252495.5,286046998.2,N
1618252515.3,286047001.2,N
1618252535.2,286047001.2,N
1618252555.0,286047000.6,N
1618252555.9,286047000.6,N
1618252575.7,286047001.2,N
1618252595.6,286046998.2,N
1618252615.4,286047001.0,N
1618252635.3,286046998.2,N
1618252655.1,286046998.4,N
1618252656.0,286046998.4,N
1618252675.8,286046998.9,N
1618252695.7,286046998.9,N
1618252715.5,286046999.3,N
1618252735.3,286046998.4,N
1618252755.2,286046998.6,N
1618252775.0,286046998.1,N
1618252775.9,286046998.1,N
1618252795.8,286046998.4,N
1618252815.6,286046998.3,N
1618252835.4,286046998.3,N
1618252855.3,286046998.2,N
1618252875.1,286046998.2,N
1618252895.9,286046998.7,N
1618252915.7,286046999.5,N
1618252935.5,286046999.5,N
1618252955.4,286046999.6,N
1618252975.2,286046999.0,N
1618252995.0,286046998.2,N
1618252995.9,286046998.2,N
1618253015.8,286046998.1,N
1618253035.6,286047000.8,N
1618253055.5,286047001.0,N
1618253075.3,286047001.1,N
1618253095.1,286046998.2,N
1618253115.9,286047000.4,N
1618253135.7,286047000.8,N
1618253155.6,286047000.8,N
1618253175.4,286047001.2,N
1618253195.2,286047001.1,N
1618253215.1,286047000.9,N
1618253216.0,286047000.9,N
1618253235.8,286046998.5,N
1618253255.6,286046998.1,N
1618253275.5,286046998.5,N
1618253295.3,286046998.6,N
1618253315.2,286046998.1,N
1618253335.9,286047000.5,N
1618253355.7,286047000.5,N
1618253375.6,286047000.6,N
1618253395.4,286047000.4,N
1618253415.2,286046998.5,N
1618253435.1,286047001.2,N
1618253436.0,286047001.2,N
1618253455.8,286046998.5,N
1618253475.7,286047000.5,N
1618253495.5,286047000.0,N
1618253515.3,286047000.0,N
1618253535.2,286047000.4,N
1618253555.0,286047000.6,N
1618253555.9,286047000.6,N
1618253575.8,286047000.9,N
1618253595.6,286047001.0,N
1618253615.4,286047000.8,N
1618253635.3,286047000.8,N
1618253655.1,286047000.8,N
1618253675.8,286047000.8,N
1618253695.7,286047001.2,N
1618253715.5,286046998.2,N
1618253735.4,286046998.1,N
1618253755.2,286046998.6,N
1618253775.0,286046998.7,N
1618253775.9,286046998.7,N
1618253795.8,286046998.7,N
1618253815.6,286046998.1,N
1618253835.5,286046998.1,N
1618253855.3,286046998.3,N
1618253875.1,286046998.9,N
1618253895.9,286047001.2,N
1618253915.7,286047001.1,N
1618253935.5,286047001.1,N
1618253955.4,286047001.1,N
1618253975.2,286047000.9,N
1618253995.1,286047000.1,N
1618253996.0,286047000.1,N
